Location: *
(12.5665°N, 8.3471°E)
Time: 06:03:49
(UTC+00:00)

Cosmos 1655 Rocket - Pass Details

Date: 23 September 2019
Orbit: 971 x 1005 km, 83.0° (Epoch: 20 October)

Event Time Altitude Azimuth Distance (km) Brightness Sun altitude
Exits shadow 03:27:55 45° 329° (NNW) 1,294 4.4 -27.1°
Drops below altitude 10° 03:32:21 10° 354° (N) 2,719 6.3 -26.0°
Sets 03:34:54 0° 358° (N) 3,670 7.1 -25.4°
